Location: Austin
(30.3000°N, 97.7500°W)
Time: 04:55:02
(UTC-06:00)

Cosmos 1441 Rocket - Pass Details

Date: 05 February 2026
Orbit: 417 x 442 km, 81.1° (Epoch: 15 February)

Event Time Altitude Azimuth Distance (km) Brightness Sun altitude
Exits shadow 05:37:55 31° 26° (NNE) 768 4.2 -22.2°
Maximum altitude 05:39:06 47° 81° (E) 562 3.7 -21.9°
Drops below altitude 10° 05:42:14 10° 156° (SSE) 1,488 5.9 -21.2°
Sets 05:44:18 0° 163° (SSE) 2,347 6.9 -20.8°
